[ hide orbit diagram ]
For accurate long-term ephemerides, please instead use our Horizons system.This orbit viewer was implemented using two-body methods, and hence should not be used for determining accurate long-term trajectories (over several years or decades) or planetary encounter circumstances.
Orbital Elements at Epoch 2459000.5 (2020-May-31.0) TDB
Reference: JPL 24 (heliocentric ecliptic J2000)
Element | Value | Uncertainty (1-sigma) | Units |
e | .02982603765618661 | 3.8211e-08 | |
a | 2.725896772113833 | 1.3491e-08 | au |
q | 2.644594072341889 | 1.0043e-07 | au |
i | 10.29263693977725 | 3.6432e-06 | deg |
node | 108.7532451701959 | 2.1601e-05 | deg |
peri | 98.95891641775854 | 6.6739e-05 | deg |
M | 109.8528693772471 | 6.3157e-05 | deg |
tp | 2458498.883932180772 (2019-Jan-15.38393218) | 0.00028797 | TDB |
period | 1643.851320758713 4.50 | 1.2204e-05 3.341e-08 | d yr |
n | .2189979078119081 | 1.6258e-09 | deg/d |
Q | 2.807199471885778 | 1.3894e-08 | au |
|
| | Orbit Determination Parameters
Additional Information
|
[ show covariance matrix ]
Physical Parameter Table
Parameter |
Symbol |
Value |
Units |
Sigma |
Reference |
Notes |
absolute magnitude |
H |
14.2 |
|
n/a |
MPO474351 |
|
diameter |
diameter |
3.861 |
km |
0.237 |
urn:nasa:pds:neowise_diameters_albedos::2.0[mainbelt] (http://adsabs.harvard.edu/abs/2011ApJ...741...68M) |
|
rotation period |
rot_per |
5.05521 |
h |
n/a |
LCDB (Rev. 2020-October); Warner et al., 2009 |
sidereal period (not synodic); Result based on less than full coverage, so that the period may be wrong by 30 percent or so. Published Reference List: [Durech, J.; Hanus, J.; Oszkiewsicz, D.; Vanco, R. (2016) Astron. Astrophys. 587, A48.] |
geometric albedo |
albedo |
0.298 |
|
0.057 |
urn:nasa:pds:neowise_diameters_albedos::2.0[mainbelt] (http://adsabs.harvard.edu/abs/2011ApJ...741...68M) |
|
|
47508 (2000 AQ58) Discovered 2000-Jan-04 by LINEAR at Socorro |
Reference: 20020921/Numbers.arc | Last Updated: 2004-04-19 |
|
[ show close-approach data ]
|